QPF
0.00 0.00 0.00 0.00 0.00 0.00 0.00 0.00 0.00 0.00 0.00 0.00 0.00 0.00 0.00 0.00 0.00 0.00 0.00 0.00 0.00 0.00 0.00 0.00 0.00 0.00 0.00 0.01 0.01 0.01 0.01 0.01 0.01 0.01 0.02 0.03 0.04 0.07
0.00 0.00 0.00 0.00 0.00 0.00 0.00 0.00 0.00 0.00 0.00 0.00 0.00 0.00 0.00 0.00 0.00 0.00 0.00 0.00 0.00 0.00 0.00 0.00 0.00 0.00 0.00 0.00 0.00 0.00 0.00 0.01 0.01 0.01 0.01 0.01 0.01 0.02
0.00 0.00 0.00 0.00 0.00 0.00 0.00 0.00 0.00 0.00 0.00 0.00 0.00 0.00 0.00 0.00 0.00 0.00 0.00 0.00 0.00 0.00 0.00 0.00 0.00 0.00 0.00 0.00 0.00 0.00 0.00 0.00 0.00 0.01 0.01 0.01 0.01 0.01
0.00 0.00 0.00 0.00 0.00 0.00 0.00 0.00 0.00 0.00 0.00 0.00 0.00 0.00 0.00 0.00 0.00 0.00 0.00 0.00 0.00 0.00 0.00 0.00 0.00 0.00 0.00 0.00 0.00 0.00 0.00 0.00 0.00 0.00 0.00 0.00 0.00 0.00
0.00 0.00 0.00 0.00 0.00 0.00 0.00 0.00 0.00 0.00 0.00 0.00 0.00 0.00 0.00 0.00 0.00 0.00 0.00 0.00 0.00 0.00 0.00 0.00 0.00 0.00 0.00 0.00 0.00 0.00 0.00 0.00 0.00 0.00 0.00 0.00 0.00 0.00
0.01 0.00 0.00 0.00 0.00 0.00 0.00 0.00 0.00 0.00 0.00 0.00 0.00 0.00 0.00 0.00 0.00 0.00 0.00 0.00 0.00 0.00 0.00 0.00 0.00 0.00 0.00 0.00 0.00 0.00 0.00 0.00 0.00 0.00 0.00 0.00 0.00 0.00
0.02 0.01 0.01 0.01 0.01 0.01 0.01 0.00 0.01 0.01 0.01 0.00 0.00 0.00 0.00 0.00 0.00 0.00 0.00 0.00 0.00 0.00 0.00 0.00 0.00 0.00 0.00 0.00 0.00 0.00 0.00 0.00 0.00 0.00 0.00 0.00 0.00 0.00
0.03 0.03 0.03 0.02 0.02 0.01 0.02 0.02 0.02 0.02 0.01 0.01 0.01 0.00 0.00 0.00 0.00 0.00 0.00 0.00 0.00 0.00 0.00 0.00 0.00 0.00 0.00 0.00 0.00 0.00 0.00 0.00 0.00 0.00 0.00 0.00 0.00 0.00
0.02 0.02 0.02 0.02 0.02 0.02 0.02 0.02 0.02 0.02 0.03 0.02 0.01 0.01 0.01 0.00 0.01 0.01 0.01 0.01 0.00 0.00 0.00 0.00 0.00 0.00 0.00 0.00 0.00 0.00 0.00 0.00 0.00 0.00 0.00 0.00 0.00 0.00
0.05 0.05 0.04 0.04 0.04 0.03 0.03 0.02 0.02 0.02 0.02 0.02 0.02 0.01 0.01 0.01 0.01 0.01 0.01 0.01 0.00 0.00 0.00 0.00 0.00 0.00 0.00 0.00 0.00 0.00 0.00 0.00 0.00 0.00 0.00 0.00 0.00 0.00
0.09 0.08 0.06 0.05 0.04 0.04 0.03 0.02 0.01 0.01 0.02 0.02 0.01 0.01 0.00 0.01 0.01 0.01 0.01 0.01 0.01 0.00 0.00 0.00 0.00 0.00 0.00 0.00 0.00 0.00 0.00 0.00 0.00 0.00 0.00 0.00 0.00 0.00
0.09 0.07 0.06 0.05 0.04 0.04 0.03 0.02 0.01 0.01 0.02 0.02 0.01 0.01 0.01 0.01 0.02 0.02 0.02 0.02 0.01 0.01 0.00 0.00 0.00 0.00 0.00 0.00 0.00 0.00 0.00 0.00 0.00 0.00 0.00 0.00 0.00 0.00
0.10 0.09 0.08 0.07 0.06 0.06 0.05 0.03 0.03 0.02 0.02 0.02 0.01 0.01 0.01 0.02 0.02 0.02 0.02 0.03 0.03 0.02 0.01 0.01 0.01 0.01 0.00 0.00 0.00 0.00 0.00 0.00 0.00 0.00 0.00 0.00 0.00 0.00
0.09 0.10 0.10 0.11 0.10 0.09 0.07 0.05 0.03 0.02 0.02 0.02 0.02 0.01 0.01 0.01 0.02 0.02 0.02 0.02 0.02 0.02 0.01 0.02 0.01 0.01 0.01 0.01 0.00 0.00 0.00 0.00 0.00 0.00 0.00 0.00 0.00 0.00
0.06 0.06 0.07 0.06 0.05 0.04 0.04 0.03 0.03 0.02 0.02 0.02 0.01 0.01 0.01 0.01 0.01 0.01 0.01 0.01 0.01 0.01 0.01 0.01 0.02 0.02 0.02 0.02 0.01 0.00 0.00 0.00 0.00 0.00 0.00 0.00 0.00 0.00
0.02 0.02 0.02 0.01 0.01 0.01 0.01 0.01 0.01 0.01 0.01 0.01 0.01 0.01 0.00 0.00 0.01 0.01 0.01 0.01 0.01 0.01 0.01 0.01 0.02 0.03 0.03 0.03 0.02 0.02 0.01 0.01 0.00 0.00 0.01 0.01 0.01 0.01
0.00 0.00 0.00 0.00 0.00 0.00 0.00 0.00 0.00 0.00 0.00 0.00 0.00 0.00 0.00 0.00 0.00 0.00 0.01 0.01 0.01 0.01 0.00 0.01 0.01 0.02 0.03 0.03 0.03 0.02 0.01 0.01 0.01 0.01 0.01 0.01 0.01 0.01
0.00 0.00 0.00 0.00 0.00 0.00 0.00 0.00 0.00 0.00 0.00 0.00 0.00 0.00 0.00 0.00 0.00 0.00 0.00 0.01 0.01 0.01 0.01 0.01 0.01 0.01 0.02 0.02 0.02 0.02 0.02 0.01 0.01 0.02 0.02 0.02 0.01 0.01
0.00 0.00 0.00 0.00 0.00 0.00 0.00 0.00 0.00 0.00 0.00 0.00 0.00 0.00 0.00 0.00 0.00 0.01 0.01 0.01 0.01 0.01 0.01 0.01 0.02 0.03 0.03 0.02 0.01 0.01 0.02 0.02 0.02 0.02 0.03 0.03 0.02 0.01
0.00 0.00 0.00 0.00 0.00 0.00 0.00 0.00 0.00 0.00 0.00 0.00 0.00 0.00 0.00 0.01 0.01 0.01 0.01 0.01 0.01 0.01 0.01 0.01 0.02 0.04 0.05 0.04 0.03 0.02 0.03 0.04 0.04 0.03 0.03 0.04 0.03 0.02
0.00 0.00 0.00 0.00 0.00 0.00 0.00 0.00 0.00 0.00 0.00 0.00 0.01 0.01 0.01 0.01 0.01 0.01 0.01 0.02 0.02 0.02 0.02 0.02 0.02 0.04 0.06 0.07 0.06 0.04 0.03 0.05 0.06 0.06 0.06 0.06 0.05 0.04
0.00 0.00 0.00 0.00 0.00 0.00 0.00 0.00 0.00 0.00 0.01 0.01 0.01 0.01 0.01 0.01 0.01 0.01 0.01 0.02 0.03 0.04 0.04 0.04 0.04 0.06 0.07 0.09 0.08 0.07 0.06 0.06 0.07 0.08 0.08 0.09 0.08 0.07
0.00 0.00 0.00 0.00 0.00 0.00 0.00 0.01 0.01 0.01 0.01 0.01 0.01 0.01 0.02 0.02 0.02 0.02 0.02 0.03 0.03 0.04 0.04 0.05 0.05 0.06 0.08 0.10 0.11 0.11 0.09 0.08 0.08 0.08 0.07 0.08 0.09 0.08
MSLP
1020.13 1020.33 1020.55 1020.76 1020.93 1021.04 1021.06 1021.01 1020.89 1020.72 1020.55 1020.38 1020.22 1020.10 1020.00 1019.92 1019.85 1019.80 1019.75 1019.73 1019.72 1019.74 1019.79 1019.85 1019.90 1019.94 1019.94 1019.89 1019.78 1019.62 1019.44 1019.25 1019.08 1018.95 1018.87 1018.85 1018.88 1018.95
1019.98 1020.16 1020.36 1020.56 1020.72 1020.82 1020.85 1020.82 1020.73 1020.60 1020.46 1020.32 1020.19 1020.08 1019.97 1019.87 1019.77 1019.67 1019.58 1019.50 1019.45 1019.44 1019.45 1019.49 1019.55 1019.59 1019.60 1019.57 1019.49 1019.36 1019.20 1019.02 1018.86 1018.72 1018.63 1018.59 1018.59 1018.62
1019.69 1019.87 1020.06 1020.24 1020.40 1020.50 1020.55 1020.55 1020.49 1020.41 1020.31 1020.21 1020.11 1020.01 1019.90 1019.78 1019.65 1019.51 1019.37 1019.23 1019.13 1019.06 1019.03 1019.04 1019.07 1019.11 1019.13 1019.13 1019.08 1018.99 1018.87 1018.73 1018.60 1018.48 1018.40 1018.35 1018.34 1018.34
1019.27 1019.45 1019.64 1019.82 1019.98 1020.09 1020.16 1020.19 1020.17 1020.13 1020.08 1020.02 1019.95 1019.87 1019.77 1019.65 1019.49 1019.31 1019.12 1018.93 1018.76 1018.62 1018.53 1018.49 1018.49 1018.51 1018.54 1018.55 1018.54 1018.50 1018.43 1018.34 1018.26 1018.18 1018.12 1018.09 1018.07 1018.07
1018.73 1018.91 1019.10 1019.29 1019.45 1019.58 1019.68 1019.73 1019.75 1019.75 1019.74 1019.72 1019.69 1019.64 1019.55 1019.43 1019.26 1019.06 1018.83 1018.59 1018.36 1018.16 1018.01 1017.90 1017.85 1017.84 1017.85 1017.87 1017.88 1017.87 1017.85 1017.82 1017.79 1017.76 1017.74 1017.73 1017.73 1017.73
1018.12 1018.30 1018.49 1018.68 1018.85 1018.99 1019.09 1019.17 1019.22 1019.25 1019.28 1019.29 1019.29 1019.26 1019.20 1019.10 1018.94 1018.73 1018.48 1018.20 1017.93 1017.67 1017.46 1017.30 1017.19 1017.12 1017.10 1017.10 1017.12 1017.14 1017.15 1017.17 1017.19 1017.20 1017.22 1017.24 1017.26 1017.27
1017.48 1017.66 1017.84 1018.03 1018.20 1018.34 1018.45 1018.53 1018.60 1018.65 1018.69 1018.73 1018.75 1018.75 1018.72 1018.64 1018.50 1018.30 1018.05 1017.77 1017.47 1017.18 1016.91 1016.69 1016.51 1016.39 1016.32 1016.29 1016.29 1016.31 1016.35 1016.40 1016.45 1016.50 1016.56 1016.61 1016.65 1016.68
1016.90 1017.06 1017.23 1017.41 1017.56 1017.69 1017.80 1017.88 1017.94 1017.99 1018.04 1018.08 1018.12 1018.14 1018.13 1018.07 1017.96 1017.79 1017.56 1017.29 1016.98 1016.67 1016.36 1016.09 1015.86 1015.68 1015.55 1015.47 1015.44 1015.44 1015.48 1015.53 1015.60 1015.68 1015.75 1015.83 1015.89 1015.94
1016.47 1016.60 1016.74 1016.89 1017.02 1017.14 1017.22 1017.29 1017.33 1017.36 1017.39 1017.42 1017.45 1017.48 1017.48 1017.45 1017.36 1017.22 1017.02 1016.76 1016.47 1016.14 1015.82 1015.51 1015.22 1014.99 1014.80 1014.67 1014.59 1014.55 1014.56 1014.60 1014.67 1014.75 1014.84 1014.93 1015.00 1015.07
1016.26 1016.34 1016.45 1016.56 1016.66 1016.75 1016.81 1016.84 1016.86 1016.86 1016.85 1016.86 1016.86 1016.87 1016.86 1016.83 1016.76 1016.63 1016.46 1016.22 1015.94 1015.62 1015.28 1014.94 1014.61 1014.33 1014.08 1013.89 1013.75 1013.67 1013.63 1013.64 1013.69 1013.76 1013.84 1013.92 1014.00 1014.07
1016.31 1016.34 1016.40 1016.47 1016.54 1016.60 1016.62 1016.62 1016.60 1016.55 1016.50 1016.46 1016.42 1016.38 1016.34 1016.29 1016.20 1016.08 1015.91 1015.69 1015.41 1015.09 1014.74 1014.38 1014.02 1013.68 1013.38 1013.13 1012.93 1012.79 1012.71 1012.67 1012.68 1012.72 1012.78 1012.85 1012.92 1012.99
1016.61 1016.59 1016.61 1016.63 1016.67 1016.69 1016.68 1016.64 1016.57 1016.48 1016.37 1016.26 1016.16 1016.06 1015.96 1015.86 1015.74 1015.59 1015.40 1015.17 1014.88 1014.55 1014.19 1013.81 1013.42 1013.04 1012.69 1012.38 1012.13 1011.93 1011.79 1011.70 1011.65 1011.65 1011.68 1011.72 1011.77 1011.83
1017.14 1017.06 1017.02 1017.01 1017.00 1016.99 1016.94 1016.87 1016.75 1016.61 1016.44 1016.26 1016.07 1015.89 1015.72 1015.54 1015.36 1015.15 1014.92 1014.66 1014.35 1014.00 1013.62 1013.21 1012.79 1012.38 1011.99 1011.63 1011.32 1011.06 1010.86 1010.71 1010.61 1010.56 1010.54 1010.55 1010.58 1010.62
1017.79 1017.66 1017.57 1017.51 1017.46 1017.41 1017.33 1017.22 1017.06 1016.85 1016.62 1016.37 1016.10 1015.83 1015.56 1015.29 1015.03 1014.75 1014.46 1014.14 1013.79 1013.41 1013.00 1012.57 1012.13 1011.69 1011.25 1010.85 1010.49 1010.17 1009.91 1009.70 1009.54 1009.43 1009.37 1009.34 1009.34 1009.37
1018.47 1018.28 1018.14 1018.04 1017.95 1017.85 1017.73 1017.57 1017.37 1017.11 1016.81 1016.48 1016.13 1015.77 1015.41 1015.05 1014.69 1014.33 1013.97 1013.59 1013.19 1012.77 1012.33 1011.87 1011.40 1010.93 1010.47 1010.03 1009.62 1009.25 1008.93 1008.66 1008.44 1008.28 1008.16 1008.10 1008.07 1008.09
1019.08 1018.84 1018.65 1018.50 1018.36 1018.21 1018.04 1017.83 1017.57 1017.27 1016.91 1016.52 1016.09 1015.65 1015.20 1014.75 1014.30 1013.86 1013.42 1012.97 1012.52 1012.06 1011.58 1011.10 1010.61 1010.12 1009.63 1009.15 1008.70 1008.29 1007.91 1007.58 1007.31 1007.09 1006.93 1006.83 1006.78 1006.78
1019.54 1019.26 1019.02 1018.81 1018.61 1018.41 1018.19 1017.93 1017.62 1017.26 1016.85 1016.40 1015.91 1015.40 1014.88 1014.35 1013.82 1013.30 1012.79 1012.28 1011.78 1011.28 1010.77 1010.27 1009.75 1009.24 1008.73 1008.23 1007.75 1007.29 1006.87 1006.49 1006.16 1005.89 1005.69 1005.55 1005.48 1005.48
1019.83 1019.51 1019.23 1018.96 1018.70 1018.44 1018.16 1017.84 1017.49 1017.08 1016.63 1016.13 1015.60 1015.03 1014.45 1013.86 1013.27 1012.69 1012.11 1011.55 1010.99 1010.45 1009.92 1009.39 1008.86 1008.33 1007.81 1007.29 1006.77 1006.28 1005.82 1005.40 1005.02 1004.71 1004.47 1004.30 1004.21 1004.20
1019.98 1019.63 1019.30 1018.98 1018.66 1018.34 1018.00 1017.63 1017.23 1016.79 1016.30 1015.77 1015.20 1014.59 1013.97 1013.33 1012.69 1012.05 1011.41 1010.80 1010.20 1009.62 1009.05 1008.50 1007.95 1007.41 1006.87 1006.33 1005.80 1005.29 1004.79 1004.33 1003.92 1003.57 1003.29 1003.10 1002.99 1002.98
1020.03 1019.66 1019.30 1018.93 1018.57 1018.19 1017.80 1017.39 1016.94 1016.47 1015.95 1015.40 1014.80 1014.17 1013.51 1012.83 1012.14 1011.44 1010.76 1010.09 1009.44 1008.81 1008.21 1007.63 1007.06 1006.51 1005.95 1005.41 1004.86 1004.33 1003.81 1003.32 1002.88 1002.50 1002.19 1001.98 1001.85 1001.83
1020.06 1019.68 1019.29 1018.89 1018.48 1018.06 1017.64 1017.19 1016.72 1016.22 1015.68 1015.11 1014.49 1013.84 1013.14 1012.42 1011.68 1010.93 1010.19 1009.46 1008.75 1008.08 1007.43 1006.82 1006.23 1005.65 1005.09 1004.54 1003.98 1003.44 1002.91 1002.41 1001.95 1001.55 1001.21 1000.97 1000.83 1000.79
1020.12 1019.73 1019.33 1018.90 1018.47 1018.02 1017.57 1017.10 1016.61 1016.09 1015.54 1014.95 1014.32 1013.64 1012.91 1012.14 1011.35 1010.53 1009.72 1008.93 1008.16 1007.43 1006.73 1006.08 1005.46 1004.87 1004.30 1003.74 1003.20 1002.66 1002.13 1001.62 1001.15 1000.74 1000.39 1000.13 999.96 999.90
1020.24 1019.85 1019.43 1019.00 1018.54 1018.08 1017.60 1017.12 1016.62 1016.09 1015.53 1014.93 1014.27 1013.56 1012.79 1011.97 1011.12 1010.25 1009.36 1008.50 1007.66 1006.86 1006.12 1005.43 1004.78 1004.18 1003.61 1003.06 1002.52 1002.00 1001.48 1000.99 1000.52 1000.10 999.74 999.46 999.27 999.17
Thickness
5700 5699 5698 5698 5697 5696 5695 5693 5689 5685 5686 5688 5691 5693 5692 5692 5691 5690 5689 5688 5687 5686 5686 5685 5684 5684 5683 5683 5683 5683 5683 5683 5683 5683 5683 5682 5682 5682
5697 5696 5695 5694 5693 5692 5691 5690 5688 5686 5683 5685 5686 5687 5688 5688 5688 5687 5686 5685 5684 5684 5683 5682 5682 5682 5681 5681 5681 5680 5680 5679 5679 5679 5679 5679 5679 5679
5694 5693 5692 5691 5689 5688 5687 5685 5683 5682 5680 5681 5681 5682 5683 5683 5683 5683 5682 5681 5681 5681 5680 5680 5680 5680 5679 5679 5678 5678 5678 5677 5676 5676 5676 5675 5675 5675
5692 5690 5689 5688 5686 5684 5682 5681 5680 5678 5677 5676 5677 5678 5678 5678 5678 5678 5678 5678 5677 5678 5678 5678 5677 5677 5677 5677 5676 5676 5675 5675 5674 5673 5673 5673 5672 5672
5689 5687 5686 5684 5682 5680 5679 5677 5676 5675 5672 5671 5672 5672 5673 5673 5672 5673 5673 5673 5673 5674 5674 5675 5675 5674 5674 5674 5673 5673 5673 5672 5671 5671 5670 5670 5669 5669
5686 5684 5682 5680 5679 5677 5675 5673 5672 5670 5668 5666 5666 5667 5666 5666 5665 5665 5667 5668 5668 5669 5670 5670 5670 5670 5670 5669 5669 5669 5669 5669 5668 5668 5667 5667 5666 5665
5680 5679 5677 5676 5675 5673 5671 5669 5667 5665 5663 5661 5661 5660 5661 5659 5659 5660 5660 5662 5663 5663 5664 5665 5664 5664 5664 5664 5664 5664 5664 5664 5664 5664 5664 5663 5662 5662
5673 5672 5671 5669 5669 5667 5665 5664 5662 5659 5658 5656 5655 5654 5655 5654 5653 5652 5651 5651 5655 5657 5655 5658 5657 5658 5658 5658 5659 5659 5659 5659 5659 5659 5659 5659 5658 5658
5667 5664 5663 5662 5661 5659 5657 5655 5654 5653 5651 5649 5648 5649 5648 5647 5644 5643 5642 5643 5646 5649 5645 5650 5651 5651 5653 5653 5653 5653 5653 5653 5653 5653 5653 5653 5653 5653
5658 5655 5653 5652 5651 5649 5648 5646 5645 5645 5643 5641 5641 5641 5640 5639 5637 5636 5636 5636 5638 5638 5635 5638 5645 5645 5647 5647 5647 5647 5647 5647 5647 5647 5647 5647 5647 5647
5647 5644 5642 5641 5639 5637 5636 5635 5635 5635 5633 5632 5632 5631 5630 5629 5626 5624 5624 5624 5628 5632 5629 5628 5635 5636 5639 5640 5641 5640 5640 5640 5640 5639 5639 5640 5639 5639
5635 5633 5631 5629 5628 5626 5624 5623 5623 5623 5621 5621 5620 5620 5619 5618 5616 5613 5613 5613 5615 5619 5622 5618 5622 5621 5627 5634 5632 5630 5630 5630 5630 5630 5630 5630 5630 5628
5622 5620 5618 5617 5615 5614 5613 5611 5610 5609 5608 5608 5608 5607 5607 5606 5605 5603 5601 5600 5601 5604 5606 5604 5607 5607 5609 5617 5620 5619 5618 5618 5619 5620 5620 5621 5620 5618
5608 5607 5605 5604 5602 5600 5599 5597 5596 5595 5594 5594 5593 5594 5593 5593 5591 5590 5589 5587 5587 5588 5589 5587 5588 5590 5593 5598 5604 5607 5607 5606 5605 5607 5609 5610 5610 5610
5594 5593 5591 5589 5588 5586 5584 5583 5581 5580 5579 5578 5578 5577 5577 5577 5576 5576 5575 5574 5574 5574 5574 5572 5571 5573 5575 5580 5586 5590 5591 5594 5592 5593 5595 5596 5599 5599
5579 5577 5576 5573 5572 5570 5568 5566 5564 5563 5561 5560 5560 5560 5559 5559 5558 5558 5558 5558 5559 5562 5559 5556 5555 5555 5558 5563 5566 5571 5573 5576 5579 5578 5580 5583 5585 5586
5563 5561 5559 5557 5555 5552 5550 5548 5547 5545 5543 5542 5542 5542 5541 5541 5541 5539 5539 5539 5539 5542 5544 5542 5539 5539 5541 5544 5549 5555 5557 5560 5562 5563 5562 5567 5572 5574
5545 5543 5540 5538 5536 5534 5532 5531 5529 5527 5526 5524 5523 5522 5522 5522 5523 5522 5520 5520 5521 5523 5524 5525 5524 5525 5528 5533 5533 5536 5540 5543 5546 5547 5547 5551 5559 5564
5526 5523 5521 5519 5516 5515 5513 5512 5511 5509 5507 5506 5505 5505 5504 5505 5504 5505 5504 5504 5505 5506 5507 5507 5506 5505 5510 5519 5527 5521 5522 5527 5529 5533 5536 5539 5546 5552
5507 5504 5502 5500 5498 5497 5496 5494 5493 5492 5491 5490 5490 5489 5489 5488 5488 5489 5489 5489 5490 5492 5494 5495 5493 5493 5494 5500 5508 5513 5510 5511 5515 5520 5525 5528 5533 5537
5488 5485 5484 5482 5481 5480 5479 5478 5477 5476 5476 5476 5475 5475 5475 5474 5475 5475 5476 5477 5476 5480 5483 5486 5486 5483 5483 5487 5494 5505 5506 5504 5505 5508 5514 5517 5523 5527
5470 5468 5467 5466 5464 5464 5463 5463 5463 5463 5463 5463 5463 5463 5463 5463 5464 5465 5467 5468 5470 5472 5475 5477 5477 5476 5477 5480 5488 5495 5499 5501 5501 5502 5504 5508 5513 5521
5454 5453 5452 5451 5450 5450 5450 5450 5450 5451 5451 5452 5452 5453 5453 5454 5456 5457 5459 5461 5464 5466 5468 5470 5472 5472 5474 5477 5482 5488 5492 5495 5498 5501 5504 5506 5508 5511